Weather History for Knox, IN

Change the Weather History Date:

Thursday, December 6, 2012

  Actual Average (KVPZ) Record (KVPZ)
Temperature  
Mean Temperature 36 °F 31 °F  
Max Temperature 43 °F 38 °F 63 °F (1998)
Min Temperature 29 °F 24 °F 5 °F (2007)
Degree Days  
Heating Degree Days 29 34  
Month to date heating degree days 197  
Since 1 July heating degree days 1455  
Cooling Degree Days 0 0  
Month to date cooling degree days 0  
Year to date cooling degree days 713  
Moisture  
Dew Point 31 °F    
Average Humidity 82    
Maximum Humidity 90    
Minimum Humidity 69    
Precipitation  
Precipitation 0.00 in 0.08 in 1.50 in (1998)
Month to date precipitation 0.52  
Year to date precipitation 35.85  
Sea Level Pressure  
Sea Level Pressure 30.08 in    
Wind  
Wind Speed 8 mph (SSE)    
Max Wind Speed 15 mph    
Max Gust Speed -    
Visibility 10 miles    
Events      
T = Trace of Precipitation, MM = Missing Value Source: NWS Daily Summary

Daily Weather History Graph

Daily Weather History Graph

Search for Another Location

Airport:

Trip Planner

Search our weather history database for the weather conditions in past years. The results will help you decide how hot, cold, wet, or windy it might be!

Date:

Astronomy

Dec. 06, 2012 Rise Set
Actual Time 6:58 AM CST 4:17 PM CST
Civil Twilight 6:27 AM CST 4:48 PM CST
Nautical Twilight 5:52 AM CST 5:22 PM CST
Astronomical Twilight 5:19 AM CST 5:56 PM CST
Moon No Moon Rise 11:47 AM CST (12/6)
Length of Visible Light 10h 20m
Length of Day
9h 18m
Waning Gibbous, 49% of the Moon is Illuminated
Dec 6
Waning Gibbous
Dec 13
New
Dec 19
First Quarter
Dec 28
Full
Jan 4
Last Quarter

Hourly Weather History & Observations

Time (CST) Temp. Windchill Dew Point Humidity Pressure Visibility Wind Dir Wind Speed Gust Speed Precip Events Conditions
12:15 AM 30.2 °F 21.9 °F 25.5 °F 83% 30.23 in 10.0 mi SE 9.2 mph - N/A   Clear
12:35 AM 30.4 °F 21.5 °F 25.5 °F 82% 30.23 in 10.0 mi SE 10.4 mph - N/A   Clear
12:55 AM 30.4 °F 22.2 °F 25.5 °F 82% 30.23 in 10.0 mi SE 9.2 mph - N/A   Clear
1:15 AM 30.6 °F 22.4 °F 25.5 °F 82% 30.23 in 10.0 mi SE 9.2 mph - N/A   Clear
1:35 AM 30.6 °F 21.8 °F 25.7 °F 82% 30.23 in 10.0 mi SE 10.4 mph - N/A   Clear
1:55 AM 30.7 °F 22.6 °F 25.5 °F 81% 30.23 in 10.0 mi SE 9.2 mph - N/A   Clear
2:15 AM 30.6 °F 22.4 °F 25.5 °F 82% 30.23 in 10.0 mi SE 9.2 mph - N/A   Clear
2:35 AM 30.4 °F 22.9 °F 25.5 °F 82% 30.23 in 10.0 mi SE 8.1 mph - N/A   Clear
2:55 AM 30.2 °F 21.3 °F 25.3 °F 82% 30.22 in 10.0 mi SE 10.4 mph - N/A   Clear
3:15 AM 30.2 °F 22.6 °F 25.3 °F 82% 30.21 in 10.0 mi SE 8.1 mph - N/A   Clear
3:35 AM 30.0 °F 24.1 °F 25.5 °F 83% 30.20 in 10.0 mi ESE 5.8 mph - N/A   Clear
3:55 AM 29.7 °F 22.8 °F 25.7 °F 85% 30.20 in 10.0 mi SE 6.9 mph - N/A   Clear
4:15 AM 29.7 °F 21.3 °F 25.5 °F 85% 30.19 in 10.0 mi SE 9.2 mph - N/A   Clear
4:35 AM 29.3 °F 21.5 °F 25.3 °F 85% 30.19 in 10.0 mi SE 8.1 mph - N/A   Clear
4:55 AM 29.3 °F 21.5 °F 25.5 °F 86% 30.19 in 10.0 mi SE 8.1 mph - N/A   Clear
5:15 AM 29.7 °F 21.3 °F 25.7 °F 85% 30.19 in 10.0 mi SE 9.2 mph - N/A   Clear
5:35 AM 29.8 °F 21.5 °F 25.7 °F 85% 30.18 in 10.0 mi SE 9.2 mph - N/A   Clear
5:55 AM 30.0 °F 22.4 °F 25.9 °F 85% 30.18 in 10.0 mi SE 8.1 mph - N/A   Clear
6:15 AM 30.0 °F 21.7 °F 26.1 °F 85% 30.18 in 10.0 mi SE 9.2 mph - N/A   Clear
6:35 AM 30.2 °F 23.4 °F 26.1 °F 85% 30.18 in 10.0 mi SE 6.9 mph - N/A   Clear
6:55 AM 30.0 °F 24.1 °F 26.2 °F 86% 30.18 in 10.0 mi SSE 5.8 mph - N/A   Clear
7:15 AM 30.0 °F 23.2 °F 26.4 °F 86% 30.18 in 10.0 mi SE 6.9 mph - N/A   Clear
7:55 AM 30.2 °F 21.3 °F 26.4 °F 86% 30.16 in 10.0 mi SE 10.4 mph - N/A   Clear
8:15 AM 30.6 °F 22.4 °F 26.6 °F 85% 30.15 in 10.0 mi SE 9.2 mph - N/A   Clear
8:35 AM 31.1 °F 22.4 °F 26.6 °F 83% 30.15 in 10.0 mi SSE 10.4 mph - N/A   Clear
8:55 AM 31.5 °F 22.9 °F 27.1 °F 84% 30.15 in 10.0 mi SSE 10.4 mph - N/A   Clear
9:15 AM 31.8 °F 23.9 °F 27.5 °F 84% 30.15 in 10.0 mi SSE 9.2 mph - N/A   Clear
9:35 AM 32.2 °F 24.4 °F 27.9 °F 84% 30.14 in 10.0 mi SSE 9.2 mph - N/A   Clear
9:55 AM 32.7 °F 25.0 °F 28.4 °F 84% 30.14 in 10.0 mi SSE 9.2 mph - N/A   Clear
10:15 AM 33.6 °F 25.6 °F 28.9 °F 83% 30.12 in 10.0 mi SSE 10.4 mph - N/A   Clear
10:35 AM 34.5 °F 26.2 °F 29.5 °F 82% 30.11 in 10.0 mi SSE 11.5 mph - N/A   Clear
11:15 AM 37.0 °F 30.4 °F 30.7 °F 78% 30.09 in 10.0 mi SSE 9.2 mph - N/A   Clear
11:35 AM 38.1 °F 32.9 °F 31.5 °F 77% 30.08 in 10.0 mi SSE 6.9 mph - N/A   Clear
11:55 AM 39.4 °F 34.5 °F 32.0 °F 75% 30.07 in 10.0 mi SSE 6.9 mph - N/A   Clear
12:15 PM 40.5 °F 36.5 °F 32.4 °F 73% 30.05 in 10.0 mi South 5.8 mph - N/A   Clear
12:55 PM 42.4 °F 38.1 °F 33.4 °F 70% 30.02 in 10.0 mi South 6.9 mph - N/A   Clear
1:15 PM 42.6 °F 37.8 °F 33.4 °F 70% 30.01 in 10.0 mi South 8.1 mph - N/A   Clear
1:35 PM 43.0 °F 37.7 °F 33.4 °F 69% 30.00 in 10.0 mi South 9.2 mph - N/A   Clear
1:55 PM 42.8 °F 38.6 °F 33.8 °F 70% 30.00 in 10.0 mi SSE 6.9 mph - N/A   Clear
2:15 PM 42.4 °F 37.5 °F 34.3 °F 73% 29.99 in 10.0 mi SSE 8.1 mph - N/A   Clear
2:35 PM 41.9 °F 38.2 °F 34.3 °F 75% 29.99 in 10.0 mi SSE 5.8 mph - N/A   Clear
3:15 PM 42.1 °F 37.7 °F 34.9 °F 76% 29.98 in 10.0 mi SSE 6.9 mph - N/A   Clear
3:35 PM 41.9 °F 36.3 °F 35.2 °F 77% 29.98 in 10.0 mi SSE 9.2 mph - N/A   Clear
3:55 PM 41.9 °F 36.3 °F 35.8 °F 79% 29.97 in 10.0 mi SSE 9.2 mph - N/A   Clear
4:15 PM 41.7 °F 36.7 °F 35.8 °F 79% 29.98 in 10.0 mi SSE 8.1 mph - N/A   Clear
4:35 PM 41.4 °F 35.7 °F 36.0 °F 81% 29.97 in 10.0 mi SSE 9.2 mph - N/A   Clear
4:55 PM 41.2 °F 36.6 °F 36.1 °F 82% 29.97 in 10.0 mi SSE 6.9 mph - N/A   Clear
5:15 PM 41.0 °F 36.4 °F 36.3 °F 83% 29.98 in 10.0 mi South 6.9 mph - N/A   Clear
5:35 PM 40.8 °F 37.8 °F 36.5 °F 85% 29.98 in 10.0 mi South 4.6 mph - N/A   Scattered Clouds
5:55 PM 40.3 °F - 36.5 °F 86% 29.97 in 10.0 mi Calm Calm - N/A   Mostly Cloudy
6:15 PM 39.9 °F 36.7 °F 36.5 °F 88% 29.97 in 10.0 mi SE 4.6 mph - N/A   Scattered Clouds
6:35 PM 39.2 °F 34.2 °F 36.5 °F 90% 29.95 in 10.0 mi SE 6.9 mph - N/A   Scattered Clouds
7:15 PM 39.6 °F 36.3 °F 36.5 °F 89% 29.96 in 10.0 mi SE 4.6 mph - N/A   Scattered Clouds
7:35 PM 39.9 °F 35.1 °F 36.7 °F 88% 29.96 in 10.0 mi SSE 6.9 mph - N/A   Scattered Clouds
7:55 PM 40.5 °F 34.6 °F 36.9 °F 87% 29.95 in 10.0 mi SSE 9.2 mph - N/A   Overcast
8:15 PM 41.0 °F 35.2 °F 37.0 °F 86% 29.95 in 10.0 mi South 9.2 mph - N/A   Overcast
8:35 PM 41.2 °F 35.5 °F 37.0 °F 85% 29.94 in 10.0 mi SSE 9.2 mph - N/A   Overcast
8:55 PM 41.4 °F 36.8 °F 37.2 °F 85% 29.94 in 10.0 mi SSE 6.9 mph - N/A   Overcast
9:15 PM 41.5 °F 35.4 °F 37.4 °F 85% 29.94 in 10.0 mi South 10.4 mph - N/A   Overcast
9:35 PM 41.5 °F 35.4 °F 37.4 °F 85% 29.93 in 10.0 mi South 10.4 mph - N/A   Overcast
9:55 PM 41.9 °F 36.3 °F 37.4 °F 84% 29.93 in 10.0 mi South 9.2 mph - N/A   Overcast
10:15 PM 41.9 °F 34.3 °F 37.6 °F 85% 29.91 in 10.0 mi SSE 15.0 mph - N/A   Overcast
10:35 PM 42.1 °F 38.4 °F 37.8 °F 85% 29.94 in 10.0 mi West 5.8 mph - N/A   Overcast
10:55 PM 41.9 °F 39.0 °F 37.9 °F 86% 29.94 in 10.0 mi WSW 4.6 mph - N/A   Mostly Cloudy
11:15 PM 41.2 °F - 37.8 °F 88% 29.95 in 10.0 mi Calm Calm - N/A   Mostly Cloudy
11:35 PM 41.0 °F 39.0 °F 37.6 °F 88% 29.94 in 10.0 mi SW 3.5 mph - N/A   Overcast